Willimantic, CT

12:06 PM EDT on October 17, 2019 (GMT -0400)
Windham

Weather History for KIJD - August, 2019

Change the Weather History Date:

Wednesday, August 28, 2019

  Actual Average Record
Temperature  
Mean Temperature 65 °F -  
Max Temperature 75 °F 80 °F 93 °F (1953)
Min Temperature 55 °F 58 °F 39 °F (1957)
Growing Degree Days 15 (Base 50)    
Moisture  
Dew Point 65 °F    
Average Humidity 93    
Maximum Humidity 100    
Minimum Humidity 66    
Precipitation  
Precipitation 1.14 in - - ()
Sea Level Pressure  
Sea Level Pressure 29.90 in    
Wind  
Wind Speed 2 mph ()    
Max Wind Speed 7 mph    
Max Gust Speed -    
Visibility 6.5 miles    
Events Rain    
Averages and records for this station are not official NWS values.
T = Trace of Precipitation, MM = Missing Value Source: Averaged Metar Reports

Daily Weather History Graph

Daily Weather History Graph

Search for Another Location

Airport or City:

Astronomy

Aug. 28, 2019 Rise Set
Actual Time 6:10 AM EDT 7:28 PM EDT
Civil Twilight 5:41 AM EDT 7:57 PM EDT
Nautical Twilight 5:06 AM EDT 8:32 PM EDT
Astronomical Twilight 4:30 AM EDT 9:08 PM EDT
Moon 3:36 AM EDT (8/28) 6:40 PM EDT (8/28)
Length of Visible Light 14h 16m
Length of Day
13h 18m
Waning Crescent, 5% of the Moon is Illuminated
Aug 28
Waning Crescent
Aug 30
New
Sep 5
First Quarter
Sep 14
Full
Sep 21
Last Quarter

Hourly Weather History & Observations

Time (EDT) Temp. Dew Point Humidity Pressure Visibility Wind Dir Wind Speed Gust Speed Precip Events Conditions
12:52 AM 62.1 °F 59.0 °F 90% 30.04 in 10.0 mi Calm Calm - N/A   Partly Cloudy
1:52 AM 60.1 °F 57.9 °F 93% 30.03 in 10.0 mi Calm Calm - N/A   Clear
2:52 AM 59.0 °F 57.9 °F 96% 30.02 in 10.0 mi Calm Calm - N/A   Clear
3:11 AM 59.0 °F 57.9 °F 96% 30.01 in 10.0 mi Calm Calm - N/A   Partly Cloudy
3:42 AM 57.9 °F 57.0 °F 97% 30.00 in 10.0 mi Calm Calm - N/A   Mostly Cloudy
3:52 AM 57.9 °F 57.0 °F 97% 30.00 in 10.0 mi Calm Calm - N/A   Mostly Cloudy
4:52 AM 57.0 °F 55.9 °F 96% 30.01 in 10.0 mi Calm Calm - N/A   Overcast
5:52 AM 57.0 °F 55.9 °F 96% 30.00 in 10.0 mi Calm Calm - N/A   Overcast
6:19 AM 55.9 °F 55.0 °F 97% 30.01 in 10.0 mi Calm Calm - N/A   Overcast
6:49 AM 57.2 °F 55.4 °F 94% 29.99 in 10.0 mi Calm Calm - N/A   Overcast
6:52 AM 57.0 °F 55.9 °F 96% 30.00 in 10.0 mi Calm Calm - N/A   Overcast
7:17 AM 57.0 °F 55.9 °F 96% 29.99 in 10.0 mi Calm Calm - N/A   Mostly Cloudy
7:38 AM 57.9 °F 57.0 °F 97% 30.00 in 10.0 mi Calm Calm - N/A   Mostly Cloudy
7:52 AM 59.0 °F 57.0 °F 93% 29.99 in 10.0 mi Calm Calm - N/A   Overcast
8:52 AM 63.0 °F 59.0 °F 87% 29.98 in 10.0 mi North - - N/A   Overcast
9:52 AM 66.9 °F 62.1 °F 84% 29.98 in 10.0 mi Calm Calm - N/A   Overcast
10:52 AM 69.1 °F 63.0 °F 81% 29.97 in 10.0 mi Calm Calm - 0.00 in Rain Light Rain
11:52 AM 73.0 °F 64.0 °F 73% 29.95 in 10.0 mi Calm Calm - 0.00 in   Overcast
12:52 PM 75.0 °F 63.0 °F 66% 29.92 in 10.0 mi SE 4.6 mph - N/A   Overcast
1:14 PM 75.0 °F 64.0 °F 69% 29.92 in 10.0 mi East 6.9 mph - N/A   Overcast
1:52 PM 73.9 °F 64.9 °F 73% 29.90 in 10.0 mi Variable 5.8 mph - 0.00 in   Overcast
2:29 PM 71.1 °F 68.0 °F 90% 29.89 in 2.5 mi East 4.6 mph - 0.01 in Rain Light Rain
2:37 PM 71.1 °F 68.0 °F 90% 29.89 in 4.0 mi ENE 4.6 mph - 0.02 in Rain Light Rain
2:48 PM 69.8 °F 68.0 °F 94% 29.88 in 1.5 mi East 4.6 mph - 0.12 in Rain Heavy Rain
2:52 PM 70.0 °F 68.0 °F 93% 29.88 in 1.0 mi ENE 6.9 mph - 0.16 in Rain Heavy Rain
3:11 PM 70.0 °F 68.0 °F 93% 29.87 in 2.0 mi North 5.8 mph - 0.09 in Rain Rain
3:14 PM 70.0 °F 68.0 °F 93% 29.86 in 1.8 mi NNE 6.9 mph - 0.10 in Rain Rain
3:25 PM 69.1 °F 68.0 °F 96% 29.86 in 1.8 mi East 3.5 mph - 0.14 in Rain Rain
3:32 PM 69.1 °F 68.0 °F 96% 29.87 in 1.5 mi Calm Calm - 0.17 in Rain Heavy Rain
3:52 PM 69.1 °F 68.0 °F 96% 29.87 in 0.8 mi Calm Calm - 0.33 in Rain Heavy Rain
4:20 PM 69.1 °F 68.0 °F 96% 29.86 in 1.8 mi NNE 4.6 mph - 0.27 in Rain Rain
4:27 PM 69.1 °F 68.0 °F 96% 29.86 in 2.5 mi NE 6.9 mph - 0.30 in Rain Heavy Rain
4:50 PM 69.8 °F 68.0 °F 94% 29.85 in 4.0 mi NE 3.5 mph - 0.35 in Rain Light Rain
4:52 PM 69.1 °F 68.0 °F 96% 29.85 in 4.0 mi NE 3.5 mph - 0.36 in Rain Light Rain
5:27 PM 69.1 °F 68.0 °F 96% 29.84 in 1.8 mi Calm Calm - 0.00 in Rain Light Rain
5:52 PM 69.1 °F 69.1 °F 100% 29.83 in 2.0 mi NNE 3.5 mph - 0.03 in Rain Light Rain
6:04 PM 70.0 °F 69.1 °F 97% 29.83 in 3.0 mi Calm Calm - 0.00 in Rain Light Rain
6:52 PM 71.1 °F 70.0 °F 96% 29.82 in 3.0 mi Calm Calm - 0.01 in Rain Light Rain
7:40 PM 72.0 °F 71.1 °F 97% 29.81 in 2.0 mi SSE 6.9 mph - 0.06 in Rain Rain
7:50 PM 71.6 °F 71.6 °F 100% 29.82 in 5.0 mi SSE 4.6 mph - 0.06 in Rain Light Rain
7:52 PM 72.0 °F 71.1 °F 97% 29.81 in 6.0 mi SSE 5.8 mph - 0.06 in Rain Light Rain
8:52 PM 73.0 °F 72.0 °F 96% 29.81 in 10.0 mi SSE 5.8 mph - 0.00 in   Overcast
9:21 PM 72.0 °F 72.0 °F 100% 29.82 in 1.8 mi WSW 4.6 mph - 0.04 in Rain Rain
9:52 PM 71.1 °F 70.0 °F 96% 29.81 in 4.0 mi Calm Calm - 0.09 in Rain Rain
10:02 PM 71.1 °F 70.0 °F 96% 29.81 in 5.0 mi Calm Calm - 0.02 in Rain Rain
10:52 PM 70.0 °F 70.0 °F 100% 29.81 in 4.0 mi Calm Calm - 0.10 in Rain Rain
11:01 PM 70.0 °F 69.1 °F 97% 29.81 in 10.0 mi WNW 3.5 mph - 0.00 in Rain Light Rain
11:35 PM 69.1 °F 69.1 °F 100% 29.82 in 10.0 mi West 4.6 mph - 0.00 in Rain Light Rain
11:52 PM 69.1 °F 69.1 °F 100% 29.81 in 10.0 mi WSW 3.5 mph - 0.00 in   Mostly Cloudy